DMSP 5D-2 F13 DEB, 40414

Orbit data source: Space-Track

DMSP 5D-2 F13 DEB, 40414 is space debris in SSO originally from a launch on Fri, 24 Mar 1995 UTC launched from the Air Force Western Test Range (AFWTR). Debris objects in space refer to the collection of defunct objects orbiting the Earth. Examples of debris include non-operational satellites, rocket bodies, and fragments generated from explosions, collisions, or faulty payload assembly.

Loading next visibility...
Identifier
40414, 1995-015AB
Orbit
SSO
Country
Flag of USUS
Related business
Manufacturer
Unknown
Mission
Spacecraft
Bus & Motor
Unknown
Mass
Unknown
Launch date (UTC)
1995-03-24 (31 years ago)
Launch vehicle
Unknown
Launch site
Air Force Western Test Range (AFWTR)
Object type
Payload
Rocket body
Debris
Shape & HBR
Unknown shape, 0.1 m
Radar Cross Section
Small (<0.1 m²)

Expand to show TLE details & history
Last TLE update: 8 hours ago

TLE from 8 hours ago
0 DMSP 5D-2 F13 DEB
1 40414U 95015AB  26119.03759082  .00002118  00000-0  79961-3 0  9993
2 40414  98.6262 147.4113 0012859  74.4852 285.7750 14.32338409580244
Epoch: 2026-04-29T00:54Z
TLE epoch observation values (Epoch: 2026-04-29T00:54:07.846Z)
Latitude
-0.00009°
Longitude
-83.12568°
Altitude
784.366 km
Speed
7.463 km/s
True Right ascension
09h 49m 38s
True Declination
0° 00' 00"
Sunlit
Object was in daylight at epoch
Visualization orbit readout
Latitude
Unknown
Longitude
Unknown
Altitude
Unknown
Speed
Unknown
Apparent Right ascension
Unknown
Apparent Declination
Unknown
Sunlit
N/A
Visualization observer readout
Local Sidereal Time
16:43:15
Azimuth
Unknown
Elevation
Unknown
Doppler factor
Unknown
Orbital elements
Apogee altitude
790.269 km
Perigee altitude
771.857 km
Semi-major axis
7,159.2 km
Eccentricity
0.00129
Inclination
98.6262°
RAAN
147.4113°
Arg. of periapsis
74.4852°
True anomaly
285.63313°
Mean anomaly
285.775°
Eccentric anomaly
285.70407°
Mean motion
3.583 °/min
Orbital period
100.47 mins
BSTAR
0.00079961

Documentation

Showing up to 5 results
|